Location: *
(38.9555°S, 57.3572°E)
Time: 01:52:03
(UTC+00:00)

Cosmos 1680 Rocket - Pass Details

Date: 15 July 2020
Orbit: 760 x 781 km, 74.1° (Epoch: 06 August)

Event Time Altitude Azimuth Distance (km) Brightness Sun altitude
Rises 15:07:24 0° 200° (SSW) 3,273 6.9 -22.8°
Reaches altitude 10° 15:09:48 10° 200° (SSW) 2,342 6.1 -23.3°
Maximum altitude 15:15:08 85° 286° (WNW) 789 3.5 -24.3°
Drops below altitude 10° 15:20:26 10° 15° (NNE) 2,326 5.9 -25.3°
Sets 15:22:48 0° 15° (NNE) 3,248 6.7 -25.8°
